METEOR 2-11 DEB

Satellite information

Favourite Embed

Satellite Type and Status

DEBRISIN ORBIT

Key statistics

Satellite METEOR 2-11 DEB at a glance.

Uptime

14915

Days in orbit

Revolutions

≈ 14.0

Per day

Orbit

LEO

Low Earth Orbit

Inclination

82.5

Latest

Satellite identification and parameters

Extended collection of information and parameters for METEOR 2-11 DEB.

Object identification

Identified? True

Debris? True

Object name: METEOR 2-11 DEB

International designator: 1984-072AA

Object number (NORAD): 60005

Object ID (CCSDS): 60005

Country: COMMONWEALTH OF INDEPENDENT STATES (CIS)

Current information (Y/N): Y

RCS size: SMALL

Orbital parameters

Period: 102.946 minutes

Inclination: 82.5211 deg

SMA: 7276.137 km

Apoapsis: 915.249 km

Periapsis: 880.756 km

RAAN: 336.4501 deg

Eccentricy: 0.0023703

Argument of periapsis: 47.5871 deg

Mean anomaly: 312.7297 deg

Mean motion: 13.98786543 rev/day

Mean motion (dot): 0.00003557 rev/day2

B* drag term: 0.0024558 1/REarth

Two-line elements (TLE)

Creation date: May 4, 2025, 2:26 a.m.

Reference frame: TEME

Reference center: EARTH

Epoch: May 3, 2025, 8:43 p.m. UTC

TLE line 0: 0 METEOR 2-11 DEB

TLE line 1: 1 60005U 84072AA 25123.86351610 .00003557 00000-0 24558-2 0 9991

TLE line 2: 2 60005 82.5211 336.4501 0023703 47.5871 312.7297 13.98786543379656

Live tracking on map

Real-time ground track for satellite METEOR 2-11 DEB.

In-orbit conjunctions

A list of the most updated potential collisions computed for object METEOR 2-11 DEB.

Target Orbit TCA Probability of collision Miss distance Type
DMSP 5D-2 F13 DEB SSO 2025-02-01 05:23:41 0.0001276899 215.0 (m) DEBRIS
SL-16 DEB LEO 2024-12-01 15:13:22 0.000174815 329.0 (m) DEBRIS
YAOGAN 7 DEB SSO 2024-12-01 10:51:36 0.000104366 551.0 (m) DEBRIS
FENGYUN 1C DEB SSO 2024-09-24 22:16:36 0.0004092742 119.0 (m) DEBRIS
METEOR 2-20 DEB LEO 2024-09-23 06:18:35 0.000222105 330.0 (m) DEBRIS

Associated space launch

Second generation soviet meteorological satellite

METEOR 2-11 DEB was lifted into orbit during the mission ‘Tsiklon-3 | Meteor-2 11’, on board a Tsiklon-3 space rocket.

The launch took place on July 5, 1984, 3:35 a.m. from 32/2.

For more information about the launch, click the button.

Launch to space Tsiklon-3 | Meteor-2 11
Tsiklon-3 | Meteor-2 11

Agency: N/A

Status: Launch Successful

Launch date: July 5, 1984, 3:35 a.m. UTC

Rocket: Tsiklon-3

Launch pad: 32/2

Location: Plesetsk Cosmodrome, Russian Federation

...

Latest news about this satellite

There are no fresh news available about this satellite. Check back as we update our databases every day.


Newsletter sign-up

Weekly statistics, charts and insights to help you stay on top of the space industry.